Vertical_Velocity
5 4 -8 2 -2 -4 1 4 -6 0 -20 18 2 -1 -7 -14 7 -1 -5 -3 3 0 -4 -9 7 7 3 3 -3 0 1 3 1 -2 -1 0 -9 -2 -1 3 3 4 2 2
1 -2 1 4 7 -2 -1 -1 -16 -22 -7 30 -4 -21 -3 -4 -11 -1 9 -4 -4 3 -4 1 13 4 7 0 -2 8 7 2 -3 1 7 2 7 0 10 1 4 2 3 2
3 -2 -1 -1 1 13 2 8 -3 9 -17 0 13 -20 -16 -13 5 -2 -6 6 -10 -1 -7 -0 7 9 8 7 5 1 -4 -0 0 3 9 1 1 7 3 2 2 -5 1 -0
-1 -2 5 2 -4 16 0 12 4 6 17 -6 36 -27 -14 -8 -23 -11 9 6 -8 4 15 5 -12 -3 12 8 -1 -2 3 -7 2 -6 3 3 -0 -3 -3 8 3 -0 7 5
-27 -3 -3 -4 -5 7 -17 4 5 -2 4 17 -28 21 -39 -8 -22 -6 2 9 3 8 7 -2 -1 6 -9 2 3 1 -2 11 3 -2 1 9 1 4 4 1 -3 4 3 -1
-2 13 5 2 -5 1 -2 -3 -3 8 -1 6 -17 23 -52 -7 -13 -5 23 5 3 12 1 10 -4 4 -14 2 1 -5 -8 -1 2 6 -6 3 -8 7 4 2 -2 0 2 3
-8 -12 -11 10 -7 -6 20 9 -4 -3 6 -10 -8 20 -22 5 -1 20 18 3 -3 36 14 11 -4 -1 0 4 2 3 -1 -2 -2 0 0 2 3 6 2 2 -3 4 3 -1
1 -18 -8 12 10 -4 -3 6 1 -2 -1 -2 10 -2 -1 -6 4 8 1 -20 41 16 5 5 4 3 -2 -2 -6 2 7 4 6 9 0 14 9 1 5 -4 1 2 2 4
-0 -8 -10 2 1 8 1 -2 -5 2 1 7 -5 -8 19 3 3 -5 1 -2 -19 21 19 3 6 1 -8 -7 -5 -1 2 -3 3 1 0 9 5 -2 -3 3 2 1 2 -1
1 -16 -9 -13 -3 5 -1 9 -1 7 -0 0 -5 4 1 26 9 11 10 8 -10 20 -3 2 4 1 2 5 2 3 9 -1 -0 1 8 3 5 0 1 1 1 8 1 -4
0 11 -19 4 -1 4 5 2 6 6 -1 -0 0 7 3 26 8 11 8 9 -20 8 5 6 1 -3 -3 3 6 2 1 3 6 8 7 6 5 2 0 1 4 -3 -2 -1
-3 -2 -4 -14 3 7 4 -3 11 2 -3 -1 0 7 -4 11 6 -2 1 2 -5 2 9 6 1 -3 -2 -5 1 11 3 2 6 4 3 6 5 -1 1 4 3 3 -1 -0
-4 5 -5 -22 10 9 13 13 9 9 7 7 3 13 7 2 -3 10 7 -1 7 11 7 3 -1 -2 6 -0 0 -3 3 -1 4 1 1 6 4 1 3 4 -2 3 -2 2
-0 -1 -2 -10 -4 7 9 1 8 13 1 -1 3 8 1 2 -3 -0 -15 -7 4 4 -6 -5 -2 2 -2 1 -3 -0 -1 2 6 15 15 6 2 4 1 7 -6 2 -1 3
18 2 12 -7 -5 8 5 6 7 -14 0 -3 4 7 -0 4 -0 -6 -4 -2 5 2 5 2 1 -1 0 -2 -2 -3 -1 6 9 -15 -7 -1 4 -0 -2 1 3 2 1 0
2 -11 -3 -0 2 2 23 7 17 6 -10 -1 -3 -4 3 -1 3 10 7 4 -1 -0 -5 -3 -3 0 1 1 -1 2 -1 -3 5 13 8 -2 1 2 1 2 0 1 2 2
8 6 1 19 -1 8 -21 1 23 -3 -2 -2 1 -3 3 4 -2 -6 -7 -2 -0 0 -2 -0 1 -1 -1 -2 -2 -4 -1 -0 1 1 2 3 -3 -3 -1 -4 0 0 1 1
-9 18 6 -1 -3 -7 7 9 13 6 -7 2 -1 -7 -4 -0 -0 2 -0 4 3 2 2 2 1 1 -1 -1 1 0 -1 -1 -3 2 6 3 -8 0 6 -1 -1 1 -1 -0
5 8 1 0 -3 3 1 -5 -0 3 -1 2 -3 -1 -0 -3 -7 4 -1 1 1 1 3 -1 -1 -3 -3 -2 -2 -2 -1 1 1 -7 -4 -3 12 1 -1 -1 6 1 -6 -1
-3 3 1 5 -3 0 6 -0 3 -1 -3 -0 6 7 7 3 14 2 1 2 1 -1 0 1 1 1 3 -1 -1 1 -0 -4 -1 4 2 1 12 10 -2 -2 0 3 -4 -2
-1 0 -7 2 -1 -0 2 2 3 -2 -1 -1 2 -0 1 8 -1 -5 -3 2 1 -0 -2 -1 2 -2 -3 -2 -2 -3 -1 2 -1 -0 2 5 16 8 43 9 0 4 8 1
-1 0 -4 0 -1 -2 1 1 2 -4 -3 -1 1 1 2 -0 -1 1 1 -0 -0 -0 5 4 2 3 0 -1 6 -9 0 -7 -3 -2 0 -4 -4 6 6 22 10 11 -3 1
-7 -1 -0 -1 -3 0 3 -1 -2 0 0 2 1 1 -0 2 3 2 3 3 3 2 1 0 -5 1 -1 -3 -5 -4 -1 -1 -1 -1 -4 0 -2 3 1 2 8 13 12 4
-1 -0 -0 1 -1 -1 -1 -2 -0 -1 -0 0 1 1 -2 3 1 1 -1 -1 -1 -2 -4 -6 1 1 0 -2 -5 2 1 -6 -3 -4 -5 -7 -3 -4 4 -1 -5 4 -9 3
-4 -3 -1 -0 -0 0 2 3 3 1 2 1 2 2 0 -1 -1 -2 -3 -3 -3 -1 0 1 -2 -4 -4 -3 -0 -3 -3 -0 3 -3 -1 1 2 -2 -3 2 3 3 4 -6
0 1 2 -1 0 0 -1 3 2 1 -1 4 0 1 -2 -2 -2 -2 -1 0 -1 -2 -3 -2 -2 -4 1 2 -5 -1 -0 -1 -3 -4 -1 -2 -0 -2 -4 -3 2 0 -0 1
Height
3053 3050 3050 3053 3054 3052 3051 3052 3048 3038 3042 3048 3039 3033 3032 3032 3031 3030 3029 3029 3030 3030 3033 3036 3036 3037 3040 3041 3046 3049 3053 3058 3061 3062 3067 3070 3073 3078 3083 3086 3090 3091 3093 3095
3047 3041 3046 3047 3048 3048 3047 3046 3037 3038 3037 3039 3031 3024 3023 3024 3021 3021 3020 3020 3020 3021 3024 3027 3028 3029 3031 3034 3037 3039 3044 3048 3052 3055 3060 3063 3069 3070 3074 3078 3081 3083 3086 3088
3040 3038 3042 3043 3043 3043 3042 3039 3037 3034 3031 3027 3024 3015 3013 3012 3012 3012 3009 3010 3011 3011 3014 3015 3019 3022 3024 3026 3028 3030 3034 3039 3044 3048 3051 3056 3060 3062 3066 3069 3073 3076 3078 3081
3034 3034 3036 3036 3034 3038 3033 3035 3033 3029 3026 3019 3021 3005 3001 3004 3003 3001 3000 3003 3002 3002 3004 3006 3008 3011 3012 3015 3016 3021 3026 3030 3037 3040 3044 3049 3053 3057 3062 3065 3066 3068 3072 3074
3021 3028 3030 3027 3027 3030 3025 3027 3025 3023 3019 3015 3008 3008 2987 2996 2991 2992 2995 2994 2990 2991 2990 2991 2995 3001 3005 3008 3009 3014 3019 3024 3029 3035 3038 3043 3048 3052 3055 3058 3060 3062 3064 3067
3021 3022 3023 3021 3020 3020 3021 3019 3018 3016 3015 3006 2999 3004 2972 2988 2986 2985 2990 2985 2980 2981 2980 2984 2988 2994 2999 3003 3004 3007 3012 3017 3023 3028 3031 3035 3040 3046 3049 3050 3052 3054 3057 3059
3018 3014 3014 3015 3011 3014 3015 3015 3012 3012 3008 2995 2993 2991 2980 2982 2982 2981 2980 2980 2978 2980 2976 2979 2984 2989 2993 2997 3000 3002 3005 3009 3015 3020 3024 3029 3035 3039 3041 3043 3044 3046 3050 3052
3010 3005 3010 3009 3008 3007 3005 3009 3007 3004 2998 2991 2988 2981 2982 2977 2973 2969 2972 2972 2970 2972 2974 2976 2982 2985 2987 2990 2992 2994 2998 3003 3008 3012 3018 3023 3028 3031 3033 3033 3036 3040 3043 3046
3010 3003 3003 3004 3002 3001 2998 2997 2997 2999 2997 2994 2984 2980 2978 2974 2971 2968 2969 2965 2973 2970 2971 2974 2979 2980 2982 2983 2985 2987 2988 2992 3000 3007 3014 3017 3020 3023 3024 3026 3029 3033 3037 3040
3008 2999 2997 2996 2997 2992 2989 2990 2993 2992 2993 2989 2977 2976 2976 2971 2970 2969 2965 2964 2969 2965 2970 2975 2975 2975 2978 2979 2981 2982 2984 2988 2993 2999 3006 3009 3013 3016 3018 3020 3023 3027 3030 3033
3005 3001 2992 2992 2988 2986 2985 2982 2985 2987 2987 2984 2977 2978 2979 2975 2971 2968 2962 2963 2965 2965 2969 2969 2969 2970 2973 2976 2977 2977 2981 2986 2991 2994 2998 3002 3006 3009 3012 3014 3018 3022 3024 3026
3002 2997 2988 2981 2976 2978 2980 2980 2983 2983 2980 2981 2979 2985 2981 2973 2969 2968 2967 2966 2970 2967 2965 2964 2965 2969 2970 2972 2975 2977 2979 2983 2987 2991 2994 2998 3000 3002 3006 3009 3013 3016 3018 3019
2999 2994 2989 2976 2975 2976 2976 2977 2979 2979 2977 2975 2974 2981 2980 2976 2970 2970 2968 2968 2969 2967 2964 2964 2965 2967 2968 2970 2972 2973 2976 2979 2983 2986 2989 2993 2996 2999 3001 3005 3008 3010 3012 3012
2992 2987 2986 2981 2977 2977 2974 2973 2971 2971 2973 2976 2981 2980 2976 2975 2971 2967 2968 2968 2965 2963 2963 2964 2963 2963 2965 2967 2969 2971 2972 2975 2979 2981 2986 2988 2992 2995 2997 3001 3004 3005 3006 3006
2986 2978 2978 2972 2972 2975 2974 2974 2970 2969 2972 2976 2982 2979 2977 2974 2972 2970 2969 2967 2965 2964 2963 2962 2962 2962 2963 2964 2966 2968 2971 2974 2975 2978 2981 2983 2986 2989 2991 2994 2997 2999 3000 2999
2978 2972 2968 2958 2965 2974 2976 2975 2974 2969 2976 2981 2981 2979 2976 2974 2973 2970 2967 2966 2964 2962 2961 2960 2961 2961 2961 2963 2964 2965 2967 2971 2973 2974 2976 2979 2981 2983 2987 2990 2992 2993 2993 2994
2970 2968 2967 2963 2966 2973 2978 2983 2975 2973 2979 2984 2981 2982 2980 2977 2974 2972 2970 2968 2966 2964 2964 2962 2962 2961 2961 2961 2963 2964 2966 2968 2970 2972 2974 2976 2978 2981 2981 2984 2987 2987 2988 2989
2971 2968 2969 2972 2972 2981 2990 2986 2981 2975 2983 2985 2985 2983 2982 2980 2978 2977 2975 2973 2970 2968 2966 2964 2962 2961 2960 2960 2961 2961 2962 2964 2967 2969 2970 2972 2976 2977 2978 2978 2981 2983 2983 2984
2974 2973 2971 2971 2976 2986 2988 2986 2984 2982 2986 2987 2988 2985 2983 2983 2982 2981 2976 2975 2973 2970 2967 2965 2964 2962 2961 2960 2959 2959 2960 2961 2962 2965 2967 2969 2970 2972 2973 2974 2976 2976 2978 2979
2976 2975 2976 2974 2979 2986 2990 2987 2986 2984 2987 2988 2988 2986 2985 2984 2985 2981 2978 2978 2976 2974 2972 2970 2968 2966 2964 2961 2959 2958 2956 2957 2958 2959 2962 2964 2965 2963 2965 2967 2968 2969 2971 2973
2979 2979 2978 2980 2984 2990 2990 2988 2988 2989 2998 2991 2990 2988 2987 2987 2985 2983 2982 2982 2980 2979 2977 2975 2973 2971 2968 2966 2964 2961 2959 2956 2955 2955 2956 2958 2957 2959 2950 2959 2962 2965 2965 2967
2984 2985 2985 2985 2987 2993 2989 2989 2991 2994 2994 2994 2993 2991 2989 2987 2986 2986 2985 2985 2984 2982 2981 2978 2978 2976 2973 2971 2969 2967 2964 2961 2959 2957 2956 2954 2954 2952 2950 2951 2953 2954 2958 2960
2989 2990 2989 2990 2994 2993 2993 2991 2991 2993 2994 2995 2995 2994 2992 2991 2991 2990 2989 2988 2987 2986 2984 2982 2981 2980 2978 2976 2973 2973 2969 2967 2965 2963 2961 2958 2954 2952 2951 2948 2945 2946 2949 2953
2992 2991 2992 2994 2995 2994 2994 2993 2993 2994 2995 2996 2996 2996 2995 2995 2995 2994 2993 2992 2990 2989 2987 2987 2985 2983 2981 2979 2978 2975 2973 2971 2970 2968 2965 2963 2960 2957 2953 2951 2951 2950 2948 2949
2994 2993 2992 2993 2994 2994 2995 2995 2995 2995 2996 2996 2996 2998 2998 2997 2997 2997 2996 2995 2993 2992 2990 2988 2987 2985 2983 2982 2979 2977 2975 2974 2973 2971 2968 2966 2964 2961 2958 2957 2955 2951 2951 2952
2992 2993 2993 2993 2994 2995 2996 2995 2996 2997 2997 2998 2999 2999 3000 2999 2999 2999 2998 2996 2995 2993 2992 2990 2988 2987 2985 2983 2981 2979 2977 2975 2974 2972 2970 2967 2965 2963 2961 2959 2957 2954 2953 2952